Weather History for Amsterdam, Netherlands

Change the Weather History Date:

Thursday, March 7, 2013

  Actual Average Record
Temperature  
Mean Temperature 48 °F -  
Max Temperature 51 °F 49 °F 57 °F (1997)
Min Temperature 44 °F 37 °F 26 °F (2011)
Degree Days  
Heating Degree Days 18    
Moisture  
Dew Point 38 °F    
Average Humidity 68    
Maximum Humidity 87    
Minimum Humidity 50    
Precipitation  
Precipitation 0.02 in - - ()
Sea Level Pressure  
Sea Level Pressure 29.50 in    
Wind  
Wind Speed 9 mph ()    
Max Wind Speed 13 mph    
Max Gust Speed -    
Visibility 4.9 miles    
Events Rain    
Averages and records for this station are not official NWS values.
T = Trace of Precipitation, MM = Missing Value Source: Averaged Metar Reports

Daily Weather History Graph

Daily Weather History Graph

Search for Another Location

Airport:

Trip Planner

Search our weather history database for the weather conditions in past years. The results will help you decide how hot, cold, wet, or windy it might be!

Date:

Astronomy

Mar. 07, 2013 Rise Set
Actual Time 7:13 AM CET 6:31 PM CET
Civil Twilight 6:39 AM CET 7:05 PM CET
Nautical Twilight 6:00 AM CET 7:44 PM CET
Astronomical Twilight 5:20 AM CET 8:24 PM CET
Moon 4:30 AM CET (3/7) 1:33 PM CET (3/7)
Length of Visible Light 12h 25m
Length of Day
11h 17m
Waning Crescent, 22% of the Moon is Illuminated
Mar 7
Waning Crescent
Mar 11
New
Mar 19
First Quarter
Mar 27
Full
Apr 3
Last Quarter

Hourly Weather History & Observations

Time (CET) Temp. Windchill Dew Point Humidity Pressure Visibility Wind Dir Wind Speed Gust Speed Precip Events Conditions
12:25 AM 50.0 °F - 35.6 °F 58% 29.56 in - East 12.7 mph - N/A   Clear
12:55 AM 48.2 °F - 35.6 °F 62% 29.53 in - East 10.4 mph - N/A   Clear
1:00 AM 48 °F - 36 °F 53% 29.56 in 9 mi East 11.2 mph - -   Partly Cloudy
1:25 AM 48.2 °F - 35.6 °F 62% 29.53 in - East 10.4 mph - N/A   Clear
1:55 AM 48.2 °F - 35.6 °F 62% 29.53 in - ENE 10.4 mph - N/A   Clear
2:25 AM 48.2 °F - 35.6 °F 62% 29.53 in - East 10.4 mph - N/A   Clear
2:55 AM 48.2 °F - 35.6 °F 62% 29.53 in - ENE 10.4 mph - N/A   Clear
3:25 AM 46.4 °F 41.9 °F 35.6 °F 66% 29.53 in - ENE 9.2 mph - N/A   Clear
3:55 AM 46.4 °F 42.4 °F 35.6 °F 66% 29.53 in - East 8.1 mph - N/A   Clear
4:00 AM 46 °F - 36 °F 57% 29.54 in 7 mi ENE 6.7 mph - -   Overcast
4:25 AM 44.6 °F 41.4 °F 35.6 °F 71% 29.53 in - NE 5.8 mph - N/A   Clear
4:55 AM 44.6 °F 40.7 °F 37.4 °F 76% 29.50 in - NE 6.9 mph - N/A   Clear
5:25 AM 44.6 °F 40.2 °F 35.6 °F 71% 29.50 in - ENE 8.1 mph - N/A   Clear
5:55 AM 44.6 °F 38.8 °F 35.6 °F 71% 29.50 in - ENE 11.5 mph - N/A   Clear
6:25 AM 44.6 °F 39.2 °F 35.6 °F 71% 29.50 in - East 10.4 mph - N/A   Clear
6:55 AM 44.6 °F 39.7 °F 35.6 °F 71% 29.50 in 5.6 mi ENE 9.2 mph - N/A   Unknown
7:00 AM 44 °F - 36 °F 66% 29.53 in 6 mi ENE 8.9 mph - -   Light Haze
7:25 AM 44.6 °F 39.2 °F 37.4 °F 76% 29.50 in 4.3 mi ENE 10.4 mph - N/A   Unknown
7:55 AM 44.6 °F 39.2 °F 35.6 °F 71% 29.50 in 4.3 mi ENE 10.4 mph - N/A   Unknown
8:25 AM 44.6 °F 39.7 °F 35.6 °F 71% 29.53 in 4.3 mi East 9.2 mph - N/A   Unknown
8:55 AM 44.6 °F 40.2 °F 35.6 °F 71% 29.53 in 4.3 mi ENE 8.1 mph - N/A   Unknown
9:25 AM 44.6 °F 39.2 °F 35.6 °F 71% 29.53 in 4.3 mi ENE 10.4 mph - N/A   Unknown
9:55 AM 44.6 °F 39.2 °F 35.6 °F 71% 29.53 in 4.3 mi East 10.4 mph - N/A   Unknown
10:00 AM 45 °F - 36 °F 62% 29.54 in 5 mi ENE 11.2 mph - -   Light Haze
10:25 AM 46.4 °F 41.9 °F 37.4 °F 71% 29.50 in 4.3 mi NE 9.2 mph - N/A   Unknown
10:55 AM 44.6 °F 39.2 °F 37.4 °F 76% 29.50 in 4.3 mi ENE 10.4 mph - N/A   Unknown
11:25 AM 46.4 °F 42.4 °F 37.4 °F 71% 29.50 in 4.3 mi ENE 8.1 mph - N/A   Unknown
11:55 AM 48.2 °F - 37.4 °F 66% 29.50 in 4.3 mi ENE 9.2 mph - N/A   Unknown
12:25 PM 50.0 °F - 37.4 °F 62% 29.50 in 4.3 mi East 11.5 mph - N/A   Unknown
12:55 PM 50.0 °F - 37.4 °F 62% 29.50 in 4.3 mi East 10.4 mph - N/A   Unknown
1:00 PM 50 °F - 37 °F 50% 29.52 in 6 mi East 11.2 mph - -   Light Haze
1:25 PM 50.0 °F - 37.4 °F 62% 29.50 in 4.3 mi East 9.2 mph - N/A   Unknown
1:55 PM 50.0 °F - 37.4 °F 62% 29.47 in 5.0 mi ENE 10.4 mph - N/A   Unknown
2:25 PM 50.0 °F - 37.4 °F 62% 29.47 in 5.0 mi ENE 11.5 mph - N/A   Unknown
2:55 PM 50.0 °F - 37.4 °F 62% 29.47 in 4.3 mi East 9.2 mph - N/A   Partly Cloudy
3:25 PM 50.0 °F - 37.4 °F 62% 29.47 in 5.0 mi East 8.1 mph - N/A   Partly Cloudy
3:55 PM 50.0 °F - 39.2 °F 66% 29.47 in 5.6 mi East 10.4 mph - N/A   Partly Cloudy
4:00 PM 51 °F - 38 °F 50% 29.49 in 6 mi East 11.2 mph - -   Light Haze
4:25 PM 51.8 °F - 39.2 °F 62% 29.47 in 5.6 mi East 9.2 mph - N/A   Unknown
4:55 PM 50.0 °F - 39.2 °F 66% 29.47 in 5.6 mi East 11.5 mph - N/A   Unknown
5:25 PM 50.0 °F - 39.2 °F 66% 29.47 in 5.6 mi East 9.2 mph - N/A   Unknown
5:55 PM 50.0 °F - 39.2 °F 66% 29.47 in 5.6 mi East 10.4 mph - N/A   Unknown
6:25 PM 50.0 °F - 39.2 °F 66% 29.47 in 5.6 mi East 10.4 mph - N/A   Unknown
6:55 PM 48.2 °F - 39.2 °F 71% 29.47 in 5.6 mi East 12.7 mph - N/A   Unknown
7:00 PM 48 °F - 39 °F 63% 29.50 in 5 mi East 11.2 mph - -   Light Haze
7:25 PM 48.2 °F - 39.2 °F 71% 29.50 in 5.0 mi East 12.7 mph - N/A   Unknown
7:55 PM 48.2 °F - 39.2 °F 71% 29.50 in 5.6 mi East 11.5 mph - N/A   Unknown
8:25 PM 48.2 °F - 39.2 °F 71% 29.50 in 5.0 mi East 11.5 mph - N/A Rain Light Rain
8:55 PM 46.4 °F 41.1 °F 41.0 °F 81% 29.50 in 5.0 mi East 11.5 mph - N/A Rain Light Rain
9:25 PM 46.4 °F 41.1 °F 41.0 °F 81% 29.50 in 4.3 mi East 11.5 mph - N/A Rain Light Rain
9:55 PM 46.4 °F 41.9 °F 41.0 °F 81% 29.50 in 4.3 mi East 9.2 mph - N/A Rain Light Rain
10:00 PM 45 °F - 41 °F 82% 29.52 in 4 mi East 8.9 mph - - Rain Heavy Rain
10:25 PM 44.6 °F 40.2 °F 41.0 °F 87% 29.50 in 3.7 mi East 8.1 mph - N/A Rain Light Rain
10:55 PM 44.6 °F 40.2 °F 41.0 °F 87% 29.50 in 3.7 mi East 8.1 mph - N/A Rain Light Rain
11:25 PM 44.6 °F 39.7 °F 41.0 °F 87% 29.50 in 3.1 mi East 9.2 mph - N/A Rain Light Rain
11:55 PM 44.6 °F 39.2 °F 41.0 °F 87% 29.47 in 3.1 mi ENE 10.4 mph - N/A   Mostly Cloudy